AirNav   Pilot Hours Calculator
 
 1571 users online  

PS01 Sterling Heliport
Croydon, Pennsylvania, USA

GOING TO CROYDON?


FAA INFORMATION EFFECTIVE 25 FEBRUARY 2021

Location

FAA Identifier: PS01
Lat/Long: 40-04-52.6000N 074-53-39.2000W
40-04.876667N 074-53.653333W
40.0812778,-74.8942222
(estimated)
Elevation: 24 ft. / 7 m (estimated)
From city: 1 mile SE of CROYDON, PA
Time zone: UTC -5 (UTC -4 during Daylight Saving Time)
Zip code: 19021

Heliport Operations

Heliport use: Private use. Permission required prior to landing
Activation date: 10/2006
Control tower: no
ARTCC: NEW YORK CENTER
FSS: WILLIAMSPORT FLIGHT SERVICE STATION
Attendance: MON-FRI 0800-1700
Wind indicator: yes
Segmented circle: no

Heliport Communications

WX ASOS at PNE (5 nm W): 121.15 (215-677-0146)
WX ASOS at VAY (9 nm S): 119.325 (609-267-1176)
WX ASOS at TTN (12 nm N): 126.775 (609-538-8690)
WX AWOS-3 at LOM (17 nm W): 118.925 (215-646-1068)
WX ASOS at DYL (18 nm NW): 118.875 (215-345-0392)

Nearby radio navigation aids

VOR radial/distance  VOR name  Freq  Var
ARDr187/10.3YARDLEY VOR/DME108.2010W
GXUr299/14.3MC GUIRE VORTAC110.6012W
RBVr258/19.7ROBBINSVILLE VORTAC113.8010W
CYNr317/26.5COYLE VORTAC113.4010W
SBJr203/30.9SOLBERG VOR/DME112.9010W
PTWr114/31.7POTTSTOWN VORTAC116.5009W
OODr045/32.7WOODSTOWN VORTAC112.8010W
VCNr016/32.8CEDAR LAKE VOR/DME115.2010W
COLr259/36.4COLTS NECK VOR/DME115.4011W
MXEr084/37.0MODENA VORTAC113.2009W

 
NDB name  Hdg/Dist  Freq  Var  ID
AMBLER110/18.127512WING .. -. --.
LAKEHURST286/25.839611WNEL -. . .-..

Heliport Services

Airframe service: MAJOR
Powerplant service: MAJOR

Runway Information

Helipad H1

Dimensions: 50 x 50 ft. / 15 x 15 m
Surface: concrete, in good condition
Traffic pattern: leftleft

Heliport Ownership and Management from official FAA records

Ownership: Privately-owned
Owner: STERLING HELICOPTER
1226 RIVER ROAD
CROYDON, PA 19021
Phone 215-271-2510
Manager: PHIL BIDDEN
1226 RIVER ROAD
CROYDON, PA 19021
Phone 215-271-2510

Additional Remarks

CALL PRIOR TO USE FOR PERMISSION, NOISE ABATEMENT PROC & PREF FLT ROUTE.
AVOID OVR FLT OF HOMES & SCHOOL 0.5 NM NE.
FOR CD CTC PHILADELPHIA APCH AT 800-354-9884.

Instrument Procedures

There are no published instrument procedures at PS01.

Some nearby airports with instrument procedures:

KPNE - Northeast Philadelphia Airport (5 nm W)
KVAY - South Jersey Regional Airport (9 nm S)
N14 - Flying W Airport (10 nm SE)
KTTN - Trenton Mercer Airport (12 nm N)
KWRI - McGuire Field (Joint Base Mc Guire Dix Lakehurst) Airport (14 nm E)
N87 - Trenton-Robbinsville Airport (16 nm NE)
KLOM - Wings Field Airport (17 nm W)
19N - Camden County Airport (18 nm S)
KDYL - Doylestown Airport (18 nm NW)
 
Loc | Ops | Rwys | IFR | FBO | Links
Com | Nav | Svcs | Stats | Notes
Area around PS01 (Sterling Heliport)
 
Road maps at: MapQuest Bing Google
 
Aerial photo
No photo
 
Sectional chart

 
Airport distance calculator
Flying to Sterling Heliport? Find the distance to fly.

From to PS01

Sunrise and sunset
Times for 08-Mar-2021
 Local
(UTC-5)
 Zulu
(UTC)
Morning civil twilight05:5610:56
Sunrise06:2311:23
Sunset17:5822:58
Evening civil twilight18:2523:25

Current date and time
Zulu (UTC)  08-Mar-2021 18:02:42
Local (UTC-5)  08-Mar-2021 13:02:42
 
METAR
KPNE 
6nm W 
081754Z VRB05KT 10SM CLR 06/M12 A3046 RMK AO2 SLP314 T00561117 10056 21039 58019
KVAY 
9nm S 
ASOS 119.325 609-267-1176
081754Z AUTO 10SM CLR 04/M11 A3045 RMK AO2 SLP311 T00441111 10050 21050 58017
KTTN 
13nm N 
ASOS 133.70 609-538-8690
081753Z 28008KT 10SM CLR 03/M11 A3043 RMK AO2 SLP301 T00281111 10033 21044 58017
KWRI 
15nm E 
081656Z 29006KT 10SM CLR 04/M12 A3046 RMK AO2A SLP316 T00401120 PWINO $
KLOM 
17nm W 
081755Z AUTO 33006KT 10SM CLR 04/M10 A3043 RMK AO2 T00381103 10040 21047
KDYL 
18nm NW 
081754Z AUTO VRB03KT 10SM CLR 04/M11 A3042 RMK AO2 SLP309 T00391106 10039 21050 58018
TAF
KPNE 
6nm W 
081137Z 0812/0912 31004KT P6SM SKC FM081500 31008KT P6SM SCT250 FM090600 22005KT P6SM FEW090 FM091100 24005KT P6SM FEW060
KTTN 
13nm N 
081137Z 0812/0912 VRB03KT P6SM SKC FM081500 30006KT P6SM SKC FM090000 VRB03KT P6SM FEW100 FM090800 23005KT P6SM FEW080
KWRI 
15nm E 
081000Z 0810/0916 33006KT 9999 SKC QNH3035INS BECMG 0813/0814 31010G15KT 9999 SKC QNH3040INS BECMG 0823/0824 23005KT 9999 SCT070 QNH3032INS BECMG 0912/0913 27010G18KT 9999 SCT040 QNH3033INS TX05/0820Z TNM07/0810Z
NOTAMs
Click for the latest NOTAMs
NOTAMs are issued by the DoD/FAA and will open in a separate window not controlled by AirNav.

 

 
 

Would you like to see your business listed on this page?

 If your business provides an interesting product or service to pilots, flight crews, aircraft, or users of the Sterling Heliport, you should consider listing it here.  To start the listing process, click on the button below
 
Add a business
 

Other Pages about Sterling Heliport

Update a link
 
Copyright © AirNav, LLC. All rights reserved. Privacy Policy  Contact